Weather History for Cortez, CO

Change the Weather History Date:

Friday, August 2, 2013

  Actual Average Record
Temperature  
Mean Temperature 75 °F 72 °F  
Max Temperature 89 °F 89 °F 97 °F (2008)
Min Temperature 60 °F 55 °F 51 °F (1998)
Degree Days  
Heating Degree Days 0 0  
Month to date heating degree days 0 0  
Since 1 June heating degree days 12 78  
Since 1 July heating degree days 0 3  
Cooling Degree Days 10 7  
Month to date cooling degree days 19 14  
Year to date cooling degree days 444 278  
Since 1 June cooling degree days 444 273  
Growing Degree Days 24 (Base 50)    
Moisture  
Dew Point 51 °F    
Average Humidity 51    
Maximum Humidity 78    
Minimum Humidity 24    
Precipitation  
Precipitation T in 0.06 in 0.43 in (2010)
Month to date precipitation 0.03 0.12  
Year to date precipitation 4.30 7.03  
Sea Level Pressure  
Sea Level Pressure 29.95 in    
Wind  
Wind Speed 7 mph (NNW)    
Max Wind Speed 31 mph    
Max Gust Speed 38 mph    
Visibility 10 miles    
Events      
T = Trace of Precipitation, MM = Missing Value Source: NWS Daily Summary

Daily Weather History Graph

Daily Weather History Graph

Search for Another Location

Airport:

Trip Planner

Search our weather history database for the weather conditions in past years. The results will help you decide how hot, cold, wet, or windy it might be!

Date:

Astronomy

Aug. 02, 2013 Rise Set
Actual Time 6:20 AM MDT 8:20 PM MDT
Civil Twilight 5:51 AM MDT 8:49 PM MDT
Nautical Twilight 5:16 AM MDT 9:24 PM MDT
Astronomical Twilight 4:38 AM MDT 10:01 PM MDT
Moon 2:44 AM MDT (8/2) 5:20 PM MDT (8/2)
Length of Visible Light 14h 58m
Length of Day
14h 00m
Waning Crescent, 15% of the Moon is Illuminated
Aug 2
Waning Crescent
Aug 6
New
Aug 14
First Quarter
Aug 20
Full
Aug 28
Last Quarter

Hourly Weather History & Observations

Time (MDT) Temp. Dew Point Humidity Pressure Visibility Wind Dir Wind Speed Gust Speed Precip Events Conditions
12:53 AM 70.0 °F 52.0 °F 53% 29.95 in 10.0 mi NNW 3.5 mph - N/A   Scattered Clouds
1:53 AM 66.0 °F 54.0 °F 65% 29.95 in 10.0 mi NE 3.5 mph - 0.00 in   Overcast
2:53 AM 64.9 °F 54.0 °F 68% 29.95 in 10.0 mi NE 11.5 mph - 0.00 in   Mostly Cloudy
3:53 AM 63.0 °F 54.0 °F 72% 29.96 in 10.0 mi NE 5.8 mph - N/A   Mostly Cloudy
4:53 AM 61.0 °F 53.1 °F 75% 29.97 in 10.0 mi Calm Calm - N/A   Mostly Cloudy
5:53 AM 60.1 °F 54.0 °F 80% 30.00 in 10.0 mi Calm Calm - N/A   Overcast
6:53 AM 61.0 °F 54.0 °F 78% 30.01 in 10.0 mi ENE 5.8 mph - N/A   Overcast
7:53 AM 64.0 °F 54.0 °F 70% 30.02 in 10.0 mi NE 5.8 mph - N/A   Overcast
8:53 AM 69.1 °F 55.0 °F 61% 30.02 in 10.0 mi NE 4.6 mph - N/A   Scattered Clouds
9:53 AM 73.9 °F 55.0 °F 52% 30.01 in 10.0 mi NE 6.9 mph - N/A   Clear
10:53 AM 77.0 °F 54.0 °F 45% 29.99 in 10.0 mi Variable 5.8 mph - N/A   Clear
11:53 AM 80.1 °F 52.0 °F 38% 29.98 in 10.0 mi West 8.1 mph - N/A   Clear
12:53 PM 81.0 °F 52.0 °F 36% 29.94 in 10.0 mi NW 4.6 mph - N/A   Mostly Cloudy
1:53 PM 84.0 °F 46.9 °F 27% 29.93 in 10.0 mi Variable 4.6 mph - 0.00 in   Partly Cloudy
2:53 PM 84.0 °F 48.9 °F 29% 29.90 in 10.0 mi Calm Calm - N/A   Partly Cloudy
3:53 PM 84.9 °F 48.0 °F 28% 29.88 in 10.0 mi WNW 8.1 mph - N/A   Clear
4:53 PM 88.0 °F 46.9 °F 24% 29.86 in 10.0 mi WNW 9.2 mph 19.6 mph N/A   Clear
5:53 PM 84.9 °F 46.0 °F 26% 29.88 in 10.0 mi WNW 13.8 mph - N/A   Clear
6:53 PM 84.0 °F 46.0 °F 26% 29.88 in 10.0 mi WNW 9.2 mph - N/A   Clear
7:53 PM 81.0 °F 46.9 °F 30% 29.90 in 10.0 mi SW 4.6 mph - N/A   Clear
8:53 PM 77.0 °F 48.0 °F 36% 29.91 in 10.0 mi South 8.1 mph - N/A   Clear
9:53 PM 73.9 °F 50.0 °F 43% 29.93 in 10.0 mi Calm Calm - N/A   Clear
10:53 PM 73.9 °F 51.1 °F 45% 29.94 in 10.0 mi SSW 8.1 mph - N/A   Partly Cloudy
11:53 PM 73.0 °F 48.9 °F 42% 29.97 in 10.0 mi SE 18.4 mph 25.3 mph N/A   Mostly Cloudy